| time (UTC) | temp F | wind direction | speed MPH | gust MPH | rain 1hr in | rain 24hr in | rain mn in | humidity % | barometer mb |
| 20260510102041 | 74 | 226 | 0.0 | 0.0 | 0.00 | 0.11 | 0.00 | 100 | 1016.1 |
| 20260510101540 | 74 | 225 | 0.0 | 0.0 | 0.00 | 0.11 | 0.00 | 100 | 1016.0 |
| 20260510101042 | 74 | 225 | 0.0 | 0.0 | 0.00 | 0.11 | 0.00 | 100 | 1015.8 |
| 20260510100542 | 74 | 225 | 0.0 | 0.0 | 0.00 | 0.11 | 0.00 | 100 | 1015.9 |
| 20260510100039 | 74 | 225 | 0.0 | 0.0 | 0.00 | 0.11 | 0.00 | 100 | 1015.8 |
| 20260510095543 | 74 | 225 | 0.0 | 0.0 | 0.00 | 0.11 | 0.00 | 100 | 1015.8 |
| 20260510095038 | 74 | 225 | 0.0 | 0.0 | 0.00 | 0.11 | 0.00 | 100 | 1015.7 |
| 20260510094541 | 74 | 225 | 0.0 | 0.0 | 0.00 | 0.11 | 0.00 | 100 | 1015.7 |
| 20260510094041 | 74 | 225 | 0.0 | 0.0 | 0.00 | 0.11 | 0.00 | 100 | 1015.6 |
| 20260510093537 | 74 | 225 | 0.0 | 0.0 | 0.00 | 0.11 | 0.00 | 100 | 1015.7 |
| 20260510093037 | 74 | 225 | 0.0 | 0.0 | 0.00 | 0.11 | 0.00 | 100 | 1015.6 |
| 20260510092537 | 74 | 225 | 0.0 | 0.0 | 0.00 | 0.11 | 0.00 | 100 | 1015.7 |
| 20260510092039 | 74 | 225 | 0.0 | 0.0 | 0.00 | 0.11 | 0.00 | 100 | 1015.8 |
| 20260510091536 | 74 | 225 | 0.0 | 0.0 | 0.00 | 0.11 | 0.00 | 100 | 1015.7 |
| 20260510091037 | 74 | 225 | 0.0 | 0.0 | 0.00 | 0.11 | 0.00 | 100 | 1015.7 |
| 20260510090536 | 74 | 225 | 0.0 | 0.0 | 0.00 | 0.11 | 0.00 | 100 | 1015.6 |
| 20260510090042 | 74 | 225 | 0.0 | 0.0 | 0.00 | 0.11 | 0.00 | 100 | 1015.6 |
| 20260510085533 | 74 | 225 | 0.0 | 0.0 | 0.00 | 0.11 | 0.00 | 100 | 1015.5 |
| 20260510085034 | 74 | 225 | 0.0 | 0.0 | 0.00 | 0.11 | 0.00 | 100 | 1015.5 |
| 20260510084534 | 74 | 225 | 0.0 | 0.0 | 0.00 | 0.11 | 0.00 | 100 | 1015.5 |
| 20260510084034 | 74 | 225 | 0.0 | 0.0 | 0.00 | 0.11 | 0.00 | 100 | 1015.5 |
| 20260510083533 | 74 | 225 | 0.0 | 3.0 | 0.00 | 0.11 | 0.00 | 100 | 1015.5 |
| 20260510083034 | 74 | 225 | 1.0 | 3.0 | 0.00 | 0.11 | 0.00 | 100 | 1015.4 |
| 20260510082532 | 75 | 288 | 0.0 | 0.0 | 0.00 | 0.11 | 0.00 | 100 | 1015.3 |
| 20260510082033 | 75 | 288 | 0.0 | 1.0 | 0.00 | 0.11 | 0.00 | 100 | 1015.4 |
| 20260510081531 | 75 | 288 | 0.0 | 1.0 | 0.00 | 0.11 | 0.00 | 100 | 1015.3 |
| 20260510081031 | 75 | 288 | 0.0 | 1.0 | 0.00 | 0.11 | 0.00 | 100 | 1015.3 |
| 20260510080534 | 75 | 288 | 0.0 | 0.0 | 0.00 | 0.11 | 0.00 | 100 | 1015.3 |
| 20260510080033 | 75 | 288 | 0.0 | 0.0 | 0.00 | 0.11 | 0.00 | 100 | 1015.3 |
| 20260510075531 | 75 | 288 | 0.0 | 0.0 | 0.00 | 0.11 | 0.00 | 100 | 1015.3 |
| 20260510075031 | 75 | 288 | 0.0 | 0.0 | 0.00 | 0.11 | 0.00 | 100 | 1015.2 |
| 20260510074534 | 75 | 288 | 0.0 | 0.0 | 0.00 | 0.11 | 0.00 | 100 | 1015.2 |
| 20260510074029 | 75 | 288 | 0.0 | 0.0 | 0.00 | 0.11 | 0.00 | 100 | 1015.3 |
| 20260510073534 | 75 | 288 | 0.0 | 0.0 | 0.00 | 0.11 | 0.00 | 100 | 1015.3 |
| 20260510073031 | 75 | 288 | 0.0 | 1.0 | 0.00 | 0.11 | 0.00 | 100 | 1015.4 |
| 20260510072529 | 75 | 288 | 0.0 | 2.0 | 0.00 | 0.11 | 0.00 | 100 | 1015.3 |
| 20260510072029 | 75 | 288 | 0.0 | 1.0 | 0.00 | 0.11 | 0.00 | 100 | 1015.3 |
| 20260510071527 | 75 | 287 | 0.0 | 0.0 | 0.00 | 0.11 | 0.00 | 100 | 1015.3 |
| 20260510071027 | 75 | 286 | 0.0 | 2.0 | 0.00 | 0.11 | 0.00 | 100 | 1015.3 |
| 20260510070530 | 75 | 286 | 0.0 | 4.0 | 0.00 | 0.11 | 0.00 | 100 | 1015.3 |
| 20260510070027 | 75 | 302 | 0.0 | 4.0 | 0.00 | 0.11 | 0.00 | 100 | 1015.3 |
| 20260510065529 | 75 | 304 | 0.0 | 5.0 | 0.00 | 0.11 | 0.00 | 100 | 1015.4 |
| 20260510065027 | 75 | 279 | 1.0 | 5.0 | 0.00 | 0.11 | 0.00 | 100 | 1015.4 |
| 20260510064528 | 75 | 321 | 1.0 | 4.0 | 0.00 | 0.11 | 0.00 | 100 | 1015.4 |
| 20260510064024 | 75 | 292 | 0.0 | 3.0 | 0.00 | 0.11 | 0.00 | 100 | 1015.5 |
| 20260510063524 | 75 | 274 | 0.0 | 3.0 | 0.00 | 0.11 | 0.00 | 100 | 1015.6 |
| 20260510063027 | 75 | 275 | 0.0 | 3.0 | 0.00 | 0.11 | 0.00 | 100 | 1015.6 |
| 20260510062523 | 75 | 277 | 0.0 | 3.0 | 0.00 | 0.11 | 0.00 | 100 | 1015.7 |
| 20260510062025 | 75 | 248 | 0.0 | 4.0 | 0.00 | 0.11 | 0.00 | 100 | 1015.7 |
| 20260510061529 | 75 | 242 | 1.0 | 5.0 | 0.00 | 0.11 | 0.00 | 100 | 1015.7 |
| 20260510061022 | 75 | 242 | 1.0 | 4.0 | 0.00 | 0.11 | 0.00 | 100 | 1015.8 |
| 20260510060522 | 75 | 243 | 0.0 | 0.0 | 0.00 | 0.11 | 0.00 | 100 | 1015.7 |
| 20260510060041 | 75 | 243 | 0.0 | 0.0 | 0.00 | 0.11 | 0.00 | 100 | 1015.7 |
| 20260510055521 | 75 | 243 | 0.0 | 0.0 | 0.00 | 0.11 | 0.00 | 100 | 1015.6 |
| 20260510055020 | 75 | 243 | 0.0 | 0.0 | 0.00 | 0.11 | 0.00 | 100 | 1015.7 |
| 20260510054521 | 76 | 228 | 0.0 | 0.0 | 0.00 | 0.11 | 0.00 | 100 | 1015.8 |
| 20260510054019 | 76 | 227 | 0.0 | 1.0 | 0.00 | 0.11 | 0.00 | 100 | 1015.9 |
| 20260510053519 | 76 | 227 | 0.0 | 1.0 | 0.00 | 0.11 | 0.00 | 100 | 1015.9 |
| 20260510053018 | 76 | 227 | 0.0 | 0.0 | 0.00 | 0.11 | 0.00 | 100 | 1016.1 |
| 20260510052518 | 76 | 200 | 0.0 | 0.0 | 0.00 | 0.11 | 0.00 | 100 | 1016.1 |
| 20260510052018 | 76 | 197 | 0.0 | 0.0 | 0.00 | 0.11 | 0.00 | 100 | 1016.1 |
| 20260510051518 | 76 | 192 | 0.0 | 0.0 | 0.00 | 0.11 | 0.00 | 100 | 1016.2 |
| 20260510051017 | 76 | 191 | 0.0 | 0.0 | 0.00 | 0.11 | 0.00 | 100 | 1016.1 |
| 20260510050517 | 76 | 190 | 0.0 | 0.0 | 0.00 | 0.11 | 0.00 | 100 | 1016.3 |
| 20260510050023 | 76 | 190 | 0.0 | 0.0 | 0.00 | 0.11 | 0.00 | 100 | 1016.3 |
| 20260510045519 | 76 | 190 | 0.0 | 0.0 | 0.00 | 0.11 | 0.00 | 100 | 1016.3 |
| 20260510045016 | 76 | 190 | 0.0 | 0.0 | 0.00 | 0.11 | 0.00 | 100 | 1016.3 |
| 20260510044517 | 76 | 190 | 0.0 | 0.0 | 0.00 | 0.11 | 0.00 | 100 | 1016.2 |
| 20260510044019 | 76 | 190 | 0.0 | 0.0 | 0.00 | 0.11 | 0.00 | 100 | 1016.2 |
| 20260510043517 | 76 | 190 | 0.0 | 0.0 | 0.00 | 0.11 | 0.00 | 100 | 1016.2 |
| 20260510043014 | 76 | 190 | 0.0 | 0.0 | 0.00 | 0.11 | 0.00 | 100 | 1016.3 |
| 20260510042514 | 77 | 190 | 0.0 | 0.0 | 0.00 | 0.11 | 0.00 | 100 | 1016.4 |
| 20260510042014 | 77 | 190 | 0.0 | 0.0 | 0.00 | 0.11 | 0.00 | 100 | 1016.5 |
| 20260510041516 | 76 | 190 | 0.0 | 0.0 | 0.00 | 0.11 | 0.00 | 100 | 1016.4 |
| 20260510041012 | 77 | 190 | 0.0 | 0.0 | 0.00 | 0.11 | 0.00 | 100 | 1016.5 |
| 20260510040511 | 77 | 190 | 0.0 | 0.0 | 0.00 | 0.11 | 0.00 | 100 | 1016.5 |
| 20260510040010 | 77 | 190 | 0.0 | 0.0 | 0.00 | 0.11 | 0.00 | 100 | 1016.5 |
| 20260510035510 | 77 | 190 | 0.0 | 0.0 | 0.00 | 0.11 | 0.00 | 100 | 1016.5 |
| 20260510035007 | 77 | 190 | 0.0 | 2.0 | 0.00 | 0.11 | 0.00 | 100 | 1016.6 |
| 20260510034507 | 77 | 190 | 0.0 | 3.0 | 0.00 | 0.11 | 0.11 | 100 | 1016.6 |
| 20260510034007 | 77 | 166 | 0.0 | 2.0 | 0.00 | 0.11 | 0.11 | 100 | 1016.5 |
| 20260510033506 | 77 | 155 | 0.0 | 0.0 | 0.00 | 0.11 | 0.11 | 100 | 1016.4 |
| 20260510033005 | 76 | 155 | 0.0 | 0.0 | 0.00 | 0.11 | 0.11 | 100 | 1016.4 |
| 20260510032506 | 76 | 155 | 0.0 | 0.0 | 0.00 | 0.11 | 0.11 | 100 | 1016.3 |
| 20260510032005 | 76 | 155 | 0.0 | 6.0 | 0.00 | 0.11 | 0.11 | 100 | 1016.2 |
| 20260510031505 | 76 | 155 | 2.0 | 6.0 | 0.00 | 0.11 | 0.11 | 100 | 1016.3 |
| 20260510031003 | 76 | 190 | 1.0 | 3.0 | 0.00 | 0.11 | 0.11 | 100 | 1016.2 |
| 20260510030503 | 77 | 311 | 0.0 | 1.0 | 0.00 | 0.11 | 0.11 | 100 | 1016.1 |
| 20260510030103 | 77 | 310 | 0.0 | 2.0 | 0.00 | 0.11 | 0.11 | 100 | 1016.0 |
| 20260510025504 | 77 | 310 | 0.0 | 1.0 | 0.00 | 0.11 | 0.11 | 100 | 1015.9 |
| 20260510025005 | 77 | 310 | 0.0 | 3.0 | 0.00 | 0.11 | 0.11 | 100 | 1016.0 |
| 20260510024504 | 77 | 311 | 0.0 | 3.0 | 0.00 | 0.11 | 0.11 | 100 | 1015.8 |
| 20260510024004 | 77 | 312 | 0.0 | 3.0 | 0.00 | 0.11 | 0.11 | 100 | 1015.8 |
| 20260510023502 | 77 | 348 | 1.0 | 4.0 | 0.01 | 0.11 | 0.11 | 100 | 1015.8 |
| 20260510023002 | 76 | 337 | 2.0 | 4.0 | 0.02 | 0.11 | 0.11 | 100 | 1015.8 |
| 20260510022504 | 77 | 348 | 0.0 | 4.0 | 0.11 | 0.11 | 0.11 | 100 | 1015.7 |
| 20260510022002 | 76 | 351 | 1.0 | 4.0 | 0.11 | 0.11 | 0.11 | 100 | 1015.5 |
| 20260510021502 | 76 | 12 | 0.0 | 4.0 | 0.11 | 0.11 | 0.11 | 100 | 1015.5 |
| 20260510021001 | 76 | 355 | 1.0 | 5.0 | 0.11 | 0.11 | 0.11 | 100 | 1015.4 |
| 20260510020502 | 76 | 342 | 1.0 | 5.0 | 0.11 | 0.11 | 0.11 | 100 | 1015.4 |
| 20260510020002 | 76 | 350 | 0.0 | 6.0 | 0.11 | 0.11 | 0.11 | 100 | 1015.3 |
| 20260510015502 | 76 | 348 | 2.0 | 6.0 | 0.11 | 0.11 | 0.11 | 100 | 1015.3 |
| 20260510015003 | 77 | 346 | 2.0 | 6.0 | 0.11 | 0.11 | 0.11 | 100 | 1015.4 |
| 20260510014501 | 77 | 330 | 0.0 | 9.0 | 0.11 | 0.11 | 0.11 | 100 | 1015.4 |
| 20260510014001 | 77 | 343 | 4.0 | 9.0 | 0.11 | 0.11 | 0.11 | 100 | 1015.3 |
| 20260510013501 | 78 | 24 | 2.0 | 12.0 | 0.10 | 0.10 | 0.10 | 100 | 1015.3 |
| 20260510013010 | 80 | 309 | 2.0 | 12.0 | 0.08 | 0.08 | 0.08 | 100 | 1015.5 |
| 20260510012500 | 83 | 325 | 5.0 | 11.0 | 0.00 | 0.00 | 0.00 | 100 | 1015.5 |
| 20260510012101 | 84 | 316 | 5.0 | 10.0 | 0.00 | 0.00 | 0.00 | 100 | 1015.1 |
| 20260510011625 | 84 | 355 | 1.0 | 9.0 | 0.00 | 0.00 | 0.00 | 100 | 1014.8 |
| 20260510011100 | 84 | 26 | 2.0 | 7.0 | 0.00 | 0.00 | 0.00 | 100 | 1014.6 |
| 20260510010600 | 83 | 291 | 1.0 | 6.0 | 0.00 | 0.00 | 0.00 | 100 | 1014.6 |
| 20260510010110 | 83 | 332 | 1.0 | 6.0 | 0.00 | 0.00 | 0.00 | 100 | 1014.6 |
| 20260510005601 | 83 | 316 | 2.0 | 13.0 | 0.00 | 0.00 | 0.00 | 100 | 1014.3 |
| 20260510005059 | 83 | 160 | 6.0 | 13.0 | 0.00 | 0.00 | 0.00 | 100 | 1014.0 |
| 20260510004600 | 82 | 153 | 4.0 | 14.0 | 0.00 | 0.00 | 0.00 | 100 | 1013.5 |
| 20260510004059 | 82 | 154 | 5.0 | 14.0 | 0.00 | 0.00 | 0.00 | 100 | 1013.4 |
| 20260510003601 | 82 | 137 | 6.0 | 12.0 | 0.00 | 0.00 | 0.00 | 100 | 1013.2 |
| 20260510003107 | 82 | 155 | 4.0 | 14.0 | 0.00 | 0.00 | 0.00 | 100 | 1013.2 |
| 20260510002558 | 82 | 165 | 7.0 | 15.0 | 0.00 | 0.00 | 0.00 | 100 | 1013.2 |
| 20260510002502 | 82 | 173 | 7.0 | 15.0 | 0.00 | 0.00 | 0.00 | 100 | 1013.2 |
| 20260510002058 | 82 | 188 | 7.0 | 12.0 | 0.00 | 0.00 | 0.00 | 100 | 1013.2 |
| 20260510001558 | 82 | 129 | 7.0 | 14.0 | 0.00 | 0.00 | 0.00 | 100 | 1013.1 |
| 20260510001057 | 83 | 148 | 4.0 | 14.0 | 0.00 | 0.00 | 0.00 | 100 | 1013.1 |
| 20260510000556 | 83 | 167 | 7.0 | 11.0 | 0.00 | 0.00 | 0.00 | 100 | 1013.1 |
| 20260510000059 | 83 | 184 | 5.0 | 15.0 | 0.00 | 0.00 | 0.00 | 100 | 1013.0 |
| 20260509235557 | 83 | 147 | 6.0 | 15.0 | 0.00 | 0.00 | 0.00 | 100 | 1012.9 |
| 20260509235057 | 83 | 155 | 5.0 | 13.0 | 0.00 | 0.00 | 0.00 | 100 | 1013.0 |
| 20260509234606 | 83 | 159 | 5.0 | 14.0 | 0.00 | 0.00 | 0.00 | 100 | 1012.9 |
| 20260509234056 | 83 | 174 | 5.0 | 14.0 | 0.00 | 0.00 | 0.00 | 100 | 1013.0 |
| 20260509233556 | 83 | 173 | 5.0 | 17.0 | 0.00 | 0.00 | 0.00 | 100 | 1012.9 |
| 20260509233103 | 83 | 138 | 7.0 | 19.0 | 0.00 | 0.00 | 0.00 | 100 | 1012.8 |
| 20260509232558 | 83 | 167 | 8.0 | 19.0 | 0.00 | 0.00 | 0.00 | 100 | 1012.7 |
| 20260509232056 | 83 | 150 | 8.0 | 17.0 | 0.00 | 0.00 | 0.00 | 100 | 1012.7 |
| 20260509231603 | 84 | 142 | 6.0 | 15.0 | 0.00 | 0.00 | 0.00 | 100 | 1012.8 |
| 20260509231055 | 84 | 141 | 7.0 | 15.0 | 0.00 | 0.00 | 0.00 | 100 | 1012.7 |
| 20260509230555 | 84 | 144 | 5.0 | 19.0 | 0.00 | 0.00 | 0.00 | 100 | 1012.8 |
| 20260509230057 | 84 | 150 | 10.0 | 18.0 | 0.00 | 0.00 | 0.00 | 100 | 1012.7 |
| 20260509225554 | 84 | 213 | 9.0 | 18.0 | 0.00 | 0.00 | 0.00 | 100 | 1012.9 |
| 20260509225502 | 84 | 162 | 9.0 | 18.0 | 0.00 | 0.00 | 0.00 | 100 | 1012.9 |
| 20260509225059 | 84 | 176 | 6.0 | 16.0 | 0.00 | 0.00 | 0.00 | 100 | 1012.8 |
| 20260509224604 | 84 | 169 | 11.0 | 19.0 | 0.00 | 0.00 | 0.00 | 100 | 1012.7 |
| 20260509224057 | 84 | 171 | 6.0 | 20.0 | 0.00 | 0.00 | 0.00 | 100 | 1012.7 |
| 20260509223554 | 84 | 159 | 7.0 | 20.0 | 0.00 | 0.00 | 0.00 | 100 | 1012.7 |
| 20260509223055 | 84 | 134 | 10.0 | 20.0 | 0.00 | 0.00 | 0.00 | 100 | 1012.7 |
| 20260509222556 | 84 | 163 | 8.0 | 22.0 | 0.00 | 0.00 | 0.00 | 100 | 1012.7 |
| 20260509222054 | 84 | 151 | 9.0 | 22.0 | 0.00 | 0.00 | 0.00 | 100 | 1012.7 |
| 20260509221553 | 85 | 157 | 9.0 | 19.0 | 0.00 | 0.00 | 0.00 | 100 | 1012.7 |
| 20260509221053 | 85 | 155 | 10.0 | 19.0 | 0.00 | 0.00 | 0.00 | 100 | 1012.8 |
| 20260509220552 | 85 | 155 | 8.0 | 17.0 | 0.00 | 0.00 | 0.00 | 100 | 1012.9 |
| 20260509220053 | 85 | 186 | 6.0 | 22.0 | 0.00 | 0.00 | 0.00 | 100 | 1012.8 |
| 20260509215552 | 85 | 118 | 9.0 | 22.0 | 0.00 | 0.00 | 0.00 | 100 | 1012.8 |
| 20260509214551 | 85 | 115 | 12.0 | 22.0 | 0.00 | 0.00 | 0.00 | 100 | 1012.8 |
| 20260509214051 | 84 | 134 | 11.0 | 22.0 | 0.00 | 0.00 | 0.00 | 100 | 1012.8 |
| 20260509213551 | 85 | 154 | 9.0 | 17.0 | 0.00 | 0.00 | 0.00 | 100 | 1012.8 |
| 20260509213102 | 85 | 138 | 11.0 | 17.0 | 0.00 | 0.00 | 0.00 | 100 | 1012.9 |
| 20260509212550 | 85 | 165 | 6.0 | 18.0 | 0.00 | 0.00 | 0.00 | 100 | 1012.8 |
| 20260509212050 | 85 | 168 | 10.0 | 21.0 | 0.00 | 0.00 | 0.00 | 100 | 1012.8 |
| 20260509211611 | 85 | 159 | 9.0 | 21.0 | 0.00 | 0.00 | 0.00 | 100 | 1012.8 |
| 20260509211051 | 85 | 148 | 7.0 | 19.0 | 0.00 | 0.00 | 0.00 | 100 | 1012.9 |
| 20260509210549 | 85 | 149 | 12.0 | 19.0 | 0.00 | 0.00 | 0.00 | 100 | 1012.8 |
| 20260509210056 | 84 | 161 | 9.0 | 22.0 | 0.00 | 0.00 | 0.00 | 100 | 1012.9 |
| 20260509205550 | 85 | 163 | 11.0 | 22.0 | 0.00 | 0.00 | 0.00 | 100 | 1012.9 |
| 20260509205048 | 84 | 133 | 11.0 | 20.0 | 0.00 | 0.00 | 0.00 | 100 | 1013.0 |
| 20260509204559 | 85 | 171 | 12.0 | 20.0 | 0.00 | 0.00 | 0.00 | 100 | 1012.9 |
| 20260509204048 | 86 | 123 | 6.0 | 13.0 | 0.00 | 0.00 | 0.00 | 100 | 1013.0 |
| 20260509203547 | 86 | 180 | 6.0 | 18.0 | 0.00 | 0.00 | 0.00 | 100 | 1012.9 |
| 20260509203057 | 85 | 140 | 9.0 | 18.0 | 0.00 | 0.00 | 0.00 | 100 | 1012.9 |
| 20260509202548 | 85 | 174 | 9.0 | 17.0 | 0.00 | 0.00 | 0.00 | 100 | 1013.0 |
| 20260509202047 | 85 | 140 | 10.0 | 17.0 | 0.00 | 0.00 | 0.00 | 100 | 1013.1 |
| 20260509201544 | 86 | 119 | 7.0 | 15.0 | 0.00 | 0.00 | 0.00 | 100 | 1013.0 |
| 20260509201044 | 86 | 127 | 7.0 | 14.0 | 0.00 | 0.00 | 0.00 | 100 | 1013.1 |
| 20260509200544 | 86 | 126 | 7.0 | 14.0 | 0.00 | 0.00 | 0.00 | 100 | 1013.2 |
| 20260509200044 | 86 | 130 | 5.0 | 16.0 | 0.00 | 0.00 | 0.00 | 100 | 1013.2 |
| 20260509195543 | 85 | 147 | 9.0 | 18.0 | 0.00 | 0.00 | 0.00 | 100 | 1013.2 |
| 20260509195043 | 85 | 156 | 9.0 | 18.0 | 0.00 | 0.00 | 0.00 | 100 | 1013.2 |
| 20260509194545 | 85 | 224 | 8.0 | 14.0 | 0.00 | 0.00 | 0.00 | 100 | 1013.4 |
| 20260509194043 | 85 | 182 | 8.0 | 15.0 | 0.00 | 0.00 | 0.00 | 100 | 1013.3 |
| 20260509193543 | 86 | 185 | 6.0 | 19.0 | 0.00 | 0.00 | 0.00 | 100 | 1013.4 |
| 20260509193054 | 85 | 182 | 10.0 | 20.0 | 0.00 | 0.00 | 0.00 | 100 | 1013.4 |
| 20260509192542 | 85 | 134 | 10.0 | 20.0 | 0.00 | 0.00 | 0.00 | 100 | 1013.5 |
| 20260509192040 | 85 | 136 | 9.0 | 19.0 | 0.00 | 0.00 | 0.00 | 100 | 1013.5 |
| 20260509191540 | 86 | 142 | 10.0 | 16.0 | 0.00 | 0.00 | 0.00 | 100 | 1013.7 |
| 20260509191039 | 86 | 150 | 7.0 | 14.0 | 0.00 | 0.00 | 0.00 | 100 | 1013.8 |
| 20260509190541 | 86 | 128 | 7.0 | 17.0 | 0.00 | 0.00 | 0.00 | 100 | 1013.7 |
| 20260509190046 | 87 | 138 | 6.0 | 17.0 | 0.00 | 0.00 | 0.00 | 100 | 1013.8 |
| 20260509185538 | 87 | 151 | 5.0 | 19.0 | 0.00 | 0.00 | 0.00 | 100 | 1013.9 |
| 20260509185037 | 86 | 120 | 9.0 | 19.0 | 0.00 | 0.00 | 0.00 | 100 | 1013.9 |
| 20260509184537 | 86 | 146 | 10.0 | 17.0 | 0.00 | 0.00 | 0.00 | 100 | 1014.0 |
| 20260509184037 | 86 | 130 | 6.0 | 18.0 | 0.00 | 0.00 | 0.00 | 100 | 1014.0 |
| 20260509183607 | 85 | 146 | 7.0 | 19.0 | 0.00 | 0.00 | 0.00 | 100 | 1013.9 |
| 20260509183038 | 85 | 169 | 9.0 | 18.0 | 0.00 | 0.00 | 0.00 | 100 | 1013.9 |
| 20260509182536 | 85 | 138 | 7.0 | 15.0 | 0.00 | 0.00 | 0.00 | 100 | 1014.0 |
| 20260509182036 | 86 | 146 | 8.0 | 18.0 | 0.00 | 0.00 | 0.00 | 100 | 1014.0 |
| 20260509181535 | 85 | 147 | 9.0 | 18.0 | 0.00 | 0.00 | 0.00 | 100 | 1014.1 |
| 20260509181035 | 85 | 127 | 8.0 | 17.0 | 0.00 | 0.00 | 0.00 | 100 | 1014.1 |
| 20260509180534 | 85 | 149 | 10.0 | 18.0 | 0.00 | 0.00 | 0.00 | 100 | 1014.2 |
| 20260509180034 | 85 | 149 | 10.0 | 18.0 | 0.00 | 0.00 | 0.00 | 100 | 1014.3 |
| 20260509175532 | 86 | 179 | 7.0 | 16.0 | 0.00 | 0.00 | 0.00 | 100 | 1014.3 |
| 20260509175035 | 86 | 135 | 6.0 | 17.0 | 0.00 | 0.00 | 0.00 | 100 | 1014.3 |
| 20260509174534 | 86 | 159 | 8.0 | 17.0 | 0.00 | 0.00 | 0.00 | 100 | 1014.4 |
| 20260509174033 | 86 | 146 | 3.0 | 12.0 | 0.00 | 0.00 | 0.00 | 100 | 1014.4 |
| 20260509173532 | 86 | 148 | 4.0 | 15.0 | 0.00 | 0.00 | 0.00 | 100 | 1014.3 |
| 20260509173031 | 87 | 171 | 7.0 | 15.0 | 0.00 | 0.00 | 0.00 | 100 | 1014.3 |
| 20260509172534 | 87 | 121 | 7.0 | 15.0 | 0.00 | 0.00 | 0.00 | 100 | 1014.5 |
| 20260509172031 | 87 | 116 | 6.0 | 14.0 | 0.00 | 0.00 | 0.00 | 100 | 1014.6 |
| 20260509171531 | 88 | 174 | 4.0 | 14.0 | 0.00 | 0.00 | 0.00 | 100 | 1014.6 |
| 20260509171030 | 90 | 143 | 6.0 | 14.0 | 0.00 | 0.00 | 0.00 | 100 | 1014.6 |
| 20260509170528 | 90 | 162 | 5.0 | 12.0 | 0.00 | 0.00 | 0.00 | 100 | 1014.6 |
| 20260509170030 | 90 | 213 | 6.0 | 14.0 | 0.00 | 0.00 | 0.00 | 100 | 1014.6 |
| 20260509165527 | 90 | 188 | 3.0 | 12.0 | 0.00 | 0.00 | 0.00 | 100 | 1014.6 |
| 20260509165023 | 90 | 267 | 5.0 | 12.0 | 0.00 | 0.00 | 0.00 | 100 | 1014.7 |
| 20260509164522 | 90 | 234 | 5.0 | 12.0 | 0.00 | 0.00 | 0.00 | 100 | 1014.8 |
| 20260509164021 | 90 | 188 | 5.0 | 12.0 | 0.00 | 0.00 | 0.00 | 100 | 1014.9 |
| 20260509163519 | 90 | 180 | 5.0 | 12.0 | 0.00 | 0.00 | 0.00 | 100 | 1014.9 |
| 20260509163023 | 89 | 207 | 4.0 | 12.0 | 0.00 | 0.00 | 0.00 | 100 | 1015.1 |
| 20260509162518 | 89 | 198 | 6.0 | 16.0 | 0.00 | 0.00 | 0.00 | 100 | 1015.2 |
| 20260509162018 | 89 | 175 | 5.0 | 16.0 | 0.00 | 0.00 | 0.00 | 100 | 1015.1 |
| 20260509161518 | 89 | 211 | 4.0 | 13.0 | 0.00 | 0.00 | 0.00 | 100 | 1015.3 |
| 20260509161014 | 89 | 200 | 3.0 | 10.0 | 0.00 | 0.00 | 0.00 | 100 | 1015.2 |
| 20260509160514 | 89 | 204 | 5.0 | 10.0 | 0.00 | 0.00 | 0.00 | 100 | 1015.3 |
| 20260509160014 | 88 | 204 | 3.0 | 10.0 | 0.00 | 0.00 | 0.00 | 100 | 1015.5 |
| 20260509155510 | 88 | 238 | 5.0 | 10.0 | 0.00 | 0.00 | 0.00 | 100 | 1015.6 |
| 20260509155008 | 88 | 165 | 5.0 | 11.0 | 0.00 | 0.00 | 0.00 | 100 | 1015.5 |
| 20260509154507 | 88 | 246 | 4.0 | 11.0 | 0.00 | 0.00 | 0.00 | 100 | 1015.6 |
| 20260509154006 | 88 | 198 | 3.0 | 11.0 | 0.00 | 0.00 | 0.00 | 100 | 1015.8 |
| 20260509153507 | 88 | 230 | 5.0 | 9.0 | 0.00 | 0.00 | 0.00 | 100 | 1015.9 |
| 20260509153009 | 88 | 207 | 4.0 | 10.0 | 0.00 | 0.00 | 0.00 | 100 | 1015.9 |
| 20260509152501 | 88 | 233 | 4.0 | 11.0 | 0.00 | 0.00 | 0.00 | 100 | 1016.0 |
| 20260509152101 | 87 | 175 | 4.0 | 13.0 | 0.00 | 0.00 | 0.00 | 100 | 1016.0 |
| 20260509151559 | 87 | 267 | 6.0 | 13.0 | 0.00 | 0.00 | 0.00 | 100 | 1016.0 |
| 20260509151056 | 87 | 178 | 5.0 | 10.0 | 0.00 | 0.00 | 0.00 | 100 | 1015.9 |
| 20260509150557 | 87 | 238 | 4.0 | 11.0 | 0.00 | 0.00 | 0.00 | 100 | 1016.0 |
| 20260509150053 | 87 | 226 | 4.0 | 17.0 | 0.00 | 0.00 | 0.00 | 100 | 1015.9 |
| 20260509145552 | 86 | 232 | 5.0 | 17.0 | 0.00 | 0.00 | 0.00 | 100 | 1016.0 |
| 20260509145051 | 86 | 246 | 4.0 | 10.0 | 0.00 | 0.00 | 0.00 | 100 | 1015.9 |
| 20260509144549 | 86 | 202 | 3.0 | 12.0 | 0.00 | 0.00 | 0.00 | 100 | 1015.9 |
| 20260509144047 | 85 | 194 | 5.0 | 12.0 | 0.00 | 0.00 | 0.00 | 100 | 1015.8 |
| 20260509143547 | 85 | 225 | 4.0 | 11.0 | 0.00 | 0.00 | 0.00 | 100 | 1015.8 |
| 20260509143050 | 85 | 207 | 4.0 | 12.0 | 0.00 | 0.00 | 0.00 | 100 | 1015.8 |
| 20260509142544 | 85 | 231 | 5.0 | 12.0 | 0.00 | 0.00 | 0.00 | 100 | 1015.8 |
| 20260509142043 | 84 | 246 | 3.0 | 9.0 | 0.00 | 0.00 | 0.00 | 100 | 1015.8 |
| 20260509141544 | 84 | 240 | 3.0 | 14.0 | 0.00 | 0.00 | 0.00 | 100 | 1015.7 |
| 20260509141040 | 83 | 211 | 4.0 | 14.0 | 0.00 | 0.00 | 0.00 | 100 | 1015.8 |
| 20260509140539 | 83 | 239 | 4.0 | 10.0 | 0.00 | 0.00 | 0.00 | 100 | 1015.9 |
| 20260509140043 | 83 | 202 | 2.0 | 10.0 | 0.00 | 0.00 | 0.00 | 100 | 1016.0 |
| 20260509135537 | 82 | 218 | 4.0 | 8.0 | 0.00 | 0.00 | 0.00 | 100 | 1016.1 |
| 20260509135037 | 82 | 252 | 3.0 | 7.0 | 0.00 | 0.00 | 0.00 | 100 | 1016.1 |
| 20260509134545 | 81 | 192 | 2.0 | 9.0 | 0.00 | 0.00 | 0.00 | 100 | 1016.1 |
| 20260509134034 | 81 | 224 | 3.0 | 9.0 | 0.00 | 0.00 | 0.00 | 100 | 1016.2 |
| 20260509133534 | 81 | 205 | 3.0 | 9.0 | 0.00 | 0.00 | 0.00 | 100 | 1016.2 |
| 20260509133033 | 80 | 254 | 4.0 | 8.0 | 0.00 | 0.00 | 0.00 | 100 | 1016.2 |
| 20260509132532 | 80 | 232 | 1.0 | 7.0 | 0.00 | 0.00 | 0.00 | 100 | 1016.1 |
| 20260509132031 | 80 | 234 | 3.0 | 9.0 | 0.00 | 0.00 | 0.00 | 100 | 1016.0 |
| 20260509131533 | 79 | 233 | 2.0 | 8.0 | 0.00 | 0.00 | 0.00 | 100 | 1016.1 |
| 20260509131030 | 79 | 232 | 3.0 | 8.0 | 0.00 | 0.00 | 0.00 | 100 | 1015.9 |
| 20260509130529 | 79 | 207 | 1.0 | 8.0 | 0.00 | 0.00 | 0.00 | 100 | 1015.8 |
| 20260509130029 | 79 | 225 | 2.0 | 10.0 | 0.00 | 0.00 | 0.00 | 100 | 1015.8 |
| 20260509125528 | 78 | 235 | 3.0 | 10.0 | 0.00 | 0.00 | 0.00 | 100 | 1015.7 |
| 20260509125028 | 78 | 209 | 2.0 | 8.0 | 0.00 | 0.00 | 0.00 | 100 | 1015.7 |
| 20260509124527 | 77 | 240 | 3.0 | 8.0 | 0.00 | 0.00 | 0.00 | 100 | 1015.6 |
| 20260509124029 | 77 | 244 | 3.0 | 8.0 | 0.00 | 0.00 | 0.00 | 100 | 1015.7 |
| 20260509123527 | 77 | 215 | 2.0 | 8.0 | 0.00 | 0.00 | 0.00 | 100 | 1015.6 |
| 20260509123026 | 77 | 204 | 1.0 | 8.0 | 0.00 | 0.00 | 0.00 | 100 | 1015.4 |
| 20260509122527 | 76 | 237 | 3.0 | 8.0 | 0.00 | 0.00 | 0.00 | 100 | 1015.5 |
| 20260509122028 | 76 | 200 | 2.0 | 6.0 | 0.00 | 0.00 | 0.00 | 100 | 1015.3 |
| 20260509121529 | 76 | 192 | 3.0 | 6.0 | 0.00 | 0.00 | 0.00 | 100 | 1015.3 |
| 20260509121026 | 76 | 184 | 2.0 | 7.0 | 0.00 | 0.00 | 0.00 | 100 | 1015.3 |
| 20260509120526 | 76 | 234 | 3.0 | 7.0 | 0.00 | 0.00 | 0.00 | 100 | 1015.3 |
| 20260509120027 | 76 | 172 | 3.0 | 5.0 | 0.00 | 0.00 | 0.00 | 100 | 1015.3 |
| 20260509115526 | 76 | 223 | 3.0 | 7.0 | 0.00 | 0.00 | 0.00 | 100 | 1015.2 |
| 20260509115025 | 76 | 167 | 3.0 | 7.0 | 0.00 | 0.00 | 0.00 | 100 | 1015.2 |
| 20260509114525 | 76 | 209 | 0.0 | 5.0 | 0.00 | 0.00 | 0.00 | 100 | 1015.2 |
| 20260509114032 | 75 | 236 | 1.0 | 5.0 | 0.00 | 0.00 | 0.00 | 100 | 1015.2 |
| 20260509113526 | 75 | 230 | 1.0 | 4.0 | 0.00 | 0.00 | 0.00 | 100 | 1015.1 |
| 20260509113027 | 75 | 241 | 0.0 | 3.0 | 0.00 | 0.00 | 0.00 | 100 | 1015.1 |
| 20260509112525 | 75 | 206 | 0.0 | 0.0 | 0.00 | 0.00 | 0.00 | 100 | 1014.9 |
| 20260509112025 | 75 | 204 | 0.0 | 0.0 | 0.00 | 0.00 | 0.00 | 100 | 1015.1 |
| 20260509111525 | 75 | 204 | 0.0 | 0.0 | 0.00 | 0.00 | 0.00 | 100 | 1015.1 |
| 20260509111025 | 75 | 191 | 0.0 | 0.0 | 0.00 | 0.00 | 0.00 | 100 | 1015.0 |
| 20260509110525 | 75 | 191 | 0.0 | 0.0 | 0.00 | 0.00 | 0.00 | 100 | 1015.0 |
| 20260509110024 | 75 | 191 | 0.0 | 0.0 | 0.00 | 0.00 | 0.00 | 100 | 1014.9 |
| 20260509105529 | 75 | 190 | 0.0 | 0.0 | 0.00 | 0.00 | 0.00 | 100 | 1015.0 |
| 20260509105024 | 75 | 190 | 0.0 | 0.0 | 0.00 | 0.00 | 0.00 | 100 | 1014.9 |
| 20260509104524 | 75 | 169 | 0.0 | 0.0 | 0.00 | 0.00 | 0.00 | 100 | 1014.8 |
| 20260509104023 | 75 | 169 | 0.0 | 0.0 | 0.00 | 0.00 | 0.00 | 100 | 1014.8 |
| 20260509103524 | 75 | 169 | 0.0 | 0.0 | 0.00 | 0.00 | 0.00 | 100 | 1014.8 |
| 20260509103026 | 75 | 169 | 0.0 | 0.0 | 0.00 | 0.00 | 0.00 | 100 | 1014.8 |
| 20260509102525 | 75 | 169 | 0.0 | 0.0 | 0.00 | 0.00 | 0.00 | 100 | 1014.7 |